Sunlight Mountain, CO

2:49 AM MDT on May 30, 2017 (GMT -0600)
Sunlight Mountain

Weather History for K5SM - July, 2013

Change the Weather History Date:

Tuesday, July 30, 2013

  Actual Average (KRIL) Record (KRIL)
Temperature  
Mean Temperature 55 °F -  
Max Temperature 68 °F 89 °F 101 °F (1934)
Min Temperature 42 °F 53 °F 41 °F (1962)
Degree Days  
Heating Degree Days 10    
Growing Degree Days 5 (Base 50)    
Moisture  
Dew Point 41 °F    
Average Humidity 62    
Maximum Humidity 87    
Minimum Humidity 43    
Precipitation  
Precipitation 0.00 in - - ()
Sea Level Pressure  
Sea Level Pressure 30.68 in    
Wind  
Wind Speed 0 mph (WSW)    
Max Wind Speed 6 mph    
Max Gust Speed -    
Visibility 10 miles    
Events Thunderstorm    
Averages and records for this station are not official NWS values.
T = Trace of Precipitation, MM = Missing Value Source: NWS Daily Summary

Daily Weather History Graph

Daily Weather History Graph

Search for Another Location

Airport or City:

Trip Planner

Search our weather history database for the weather conditions in past years. The results will help you decide how hot, cold, wet, or windy it might be!

Date:

Astronomy

Jul. 30, 2013 Rise Set
Actual Time 6:07 AM MDT 8:23 PM MDT
Civil Twilight 5:37 AM MDT 8:53 PM MDT
Nautical Twilight 5:00 AM MDT 9:30 PM MDT
Astronomical Twilight 4:19 AM MDT 10:11 PM MDT
Moon 12:27 AM MDT 2:46 PM MDT
Length of Visible Light 15h 16m
Length of Day
14h 15m
Last Quarter, 40% of the Moon is Illuminated
Jul 30
Last Quarter
Aug 6
New
Aug 14
First Quarter
Aug 20
Full
Aug 28
Last Quarter

Hourly Weather History & Observations

Time (MDT) Temp. Dew Point Humidity Pressure Visibility Wind Dir Wind Speed Gust Speed Precip Events Conditions
12:19 AM 46.4 °F 39.2 °F 76% 30.59 in 10.0 mi Calm Calm - N/A Thunderstorm Clear
12:39 AM 46.4 °F 39.2 °F 76% 30.60 in 10.0 mi Calm Calm - N/A Thunderstorm Clear
12:58 AM 46.4 °F 39.2 °F 76% 30.60 in 10.0 mi Calm Calm - N/A   Clear
1:19 AM 44.6 °F 39.2 °F 81% 30.61 in 10.0 mi Calm Calm - N/A   Clear
1:39 AM 46.4 °F 39.2 °F 76% 30.61 in 10.0 mi Calm Calm - N/A   Scattered Clouds
1:59 AM 46.4 °F 41.0 °F 81% 30.62 in 10.0 mi Calm Calm - N/A   Scattered Clouds
2:19 AM 44.6 °F 39.2 °F 81% 30.61 in 10.0 mi Calm Calm - N/A   Clear
2:39 AM 44.6 °F 39.2 °F 81% 30.61 in 10.0 mi Calm Calm - N/A   Clear
2:59 AM 44.6 °F 39.2 °F 81% 30.61 in 10.0 mi Calm Calm - N/A   Clear
3:19 AM 44.6 °F 39.2 °F 81% 30.60 in 10.0 mi Calm Calm - N/A   Clear
3:39 AM 44.6 °F 39.2 °F 81% 30.60 in 10.0 mi Calm Calm - N/A   Clear
3:59 AM 44.6 °F 39.2 °F 81% 30.60 in 10.0 mi Calm Calm - N/A   Clear
4:19 AM 42.8 °F 39.2 °F 87% 30.61 in 10.0 mi Calm Calm - N/A   Scattered Clouds
4:39 AM 44.6 °F 39.2 °F 81% 30.60 in 10.0 mi Calm Calm - N/A   Scattered Clouds
4:59 AM 44.6 °F 39.2 °F 81% 30.61 in 10.0 mi Calm Calm - N/A   Clear
5:19 AM 44.6 °F 39.2 °F 81% 30.61 in 10.0 mi Calm Calm - N/A   Clear
5:38 AM 42.8 °F 39.2 °F 87% 30.61 in 10.0 mi Calm Calm - N/A   Clear
5:58 AM 44.6 °F 39.2 °F 81% 30.62 in 10.0 mi Calm Calm - N/A   Clear
6:19 AM 42.8 °F 39.2 °F 87% 30.63 in 10.0 mi Calm Calm - N/A   Clear
6:39 AM 44.6 °F 39.2 °F 81% 30.64 in 10.0 mi Calm Calm - N/A   Clear
6:58 AM 46.4 °F 39.2 °F 76% 30.64 in 10.0 mi Calm Calm - N/A   Clear
7:18 AM 46.4 °F 39.2 °F 76% 30.65 in 10.0 mi Calm Calm - N/A   Clear
7:39 AM 46.4 °F 41.0 °F 81% 30.65 in 10.0 mi Calm Calm - N/A   Clear
7:59 AM 50.0 °F 41.0 °F 71% 30.66 in 10.0 mi Calm Calm - N/A   Clear
8:19 AM 50.0 °F 42.8 °F 76% 30.67 in 10.0 mi Calm Calm - N/A   Clear
8:39 AM 51.8 °F 42.8 °F 71% 30.68 in 10.0 mi Calm Calm - N/A   Clear
8:59 AM 53.6 °F 42.8 °F 67% 30.68 in 10.0 mi Calm Calm - N/A   Clear
9:19 AM 53.6 °F 42.8 °F 67% 30.69 in 10.0 mi Calm Calm - N/A   Clear
9:39 AM 55.4 °F 44.6 °F 67% 30.69 in 10.0 mi Calm Calm - N/A   Clear
9:59 AM 57.2 °F 44.6 °F 63% 30.70 in 10.0 mi Calm Calm - N/A   Clear
10:19 AM 59.0 °F 42.8 °F 55% 30.70 in 10.0 mi Calm Calm - N/A   Clear
10:39 AM 59.0 °F 42.8 °F 55% 30.70 in 10.0 mi Calm Calm - N/A   Clear
10:59 AM 60.8 °F 42.8 °F 52% 30.71 in 10.0 mi Calm Calm - N/A   Clear
11:19 AM 60.8 °F 42.8 °F 52% 30.72 in 10.0 mi WNW 3.5 mph - N/A   Clear
11:39 AM 60.8 °F 42.8 °F 52% 30.72 in 10.0 mi SW 3.5 mph - N/A   Clear
11:59 AM 60.8 °F 42.8 °F 52% 30.72 in 10.0 mi SW 3.5 mph - N/A   Clear
12:19 PM 62.6 °F 42.8 °F 48% 30.72 in 10.0 mi SW 3.5 mph - N/A   Clear
12:39 PM 62.6 °F 42.8 °F 48% 30.71 in 10.0 mi Calm Calm - N/A   Clear
12:59 PM 62.6 °F 42.8 °F 48% 30.71 in 10.0 mi Calm Calm - N/A   Clear
1:19 PM 62.6 °F 42.8 °F 48% 30.71 in 10.0 mi WSW 5.8 mph - N/A   Clear
1:39 PM 64.4 °F 44.6 °F 49% 30.71 in 10.0 mi Calm Calm - N/A   Clear
1:59 PM 64.4 °F 44.6 °F 49% 30.71 in 10.0 mi Calm Calm - N/A   Clear
2:19 PM 66.2 °F 44.6 °F 46% 30.71 in 10.0 mi Calm Calm - N/A   Scattered Clouds
2:39 PM 68.0 °F 44.6 °F 43% 30.71 in 10.0 mi WSW 4.6 mph - N/A   Mostly Cloudy
2:58 PM 64.4 °F 44.6 °F 49% 30.71 in 10.0 mi Calm Calm - N/A   Mostly Cloudy
3:19 PM 64.4 °F 44.6 °F 49% 30.71 in 10.0 mi West 5.8 mph - N/A   Mostly Cloudy
3:39 PM 66.2 °F 44.6 °F 46% 30.71 in 10.0 mi Calm Calm - N/A   Mostly Cloudy
3:58 PM 68.0 °F 44.6 °F 43% 30.71 in 10.0 mi Calm Calm - N/A   Mostly Cloudy
4:19 PM 64.4 °F 44.6 °F 49% 30.71 in 10.0 mi West 4.6 mph - N/A   Mostly Cloudy
4:39 PM 59.0 °F 42.8 °F 55% 30.71 in 10.0 mi WSW 4.6 mph - N/A Thunderstorm Thunderstorm
4:59 PM 59.0 °F 42.8 °F 55% 30.71 in 10.0 mi Calm Calm - N/A   Overcast
5:18 PM 60.8 °F 44.6 °F 55% 30.70 in 10.0 mi Calm Calm - N/A   Overcast
5:39 PM 66.2 °F 44.6 °F 46% 30.70 in 10.0 mi Calm Calm - N/A   Scattered Clouds
5:59 PM 64.4 °F 44.6 °F 49% 30.70 in 10.0 mi Calm Calm - N/A   Mostly Cloudy
6:18 PM 62.6 °F 41.0 °F 45% 30.71 in 10.0 mi Calm Calm - N/A   Scattered Clouds
6:39 PM 60.8 °F 42.8 °F 52% 30.70 in 10.0 mi Calm Calm - N/A   Scattered Clouds
6:59 PM 62.6 °F 42.8 °F 48% 30.70 in 10.0 mi Calm Calm - N/A   Mostly Cloudy
7:18 PM 60.8 °F 42.8 °F 52% 30.70 in 10.0 mi Calm Calm - N/A   Mostly Cloudy
7:38 PM 59.0 °F 42.8 °F 55% 30.71 in 10.0 mi Calm Calm - N/A   Scattered Clouds
7:59 PM 57.2 °F 42.8 °F 59% 30.71 in 10.0 mi Calm Calm - N/A   Clear
8:19 PM 55.4 °F 42.8 °F 63% 30.71 in 10.0 mi Calm Calm - N/A   Clear
8:39 PM 53.6 °F 39.2 °F 58% 30.71 in 10.0 mi Calm Calm - N/A   Clear
8:59 PM 51.8 °F 37.4 °F 58% 30.72 in 10.0 mi Calm Calm - N/A   Clear
9:19 PM 53.6 °F 37.4 °F 54% 30.73 in 10.0 mi Calm Calm - N/A   Clear
9:39 PM 53.6 °F 37.4 °F 54% 30.73 in 10.0 mi Calm Calm - N/A   Clear
9:59 PM 53.6 °F 35.6 °F 51% 30.74 in 10.0 mi Calm Calm - N/A   Clear
10:19 PM 53.6 °F 35.6 °F 51% 30.74 in 10.0 mi Calm Calm - N/A   Clear
10:39 PM 55.4 °F 37.4 °F 51% 30.74 in 10.0 mi Calm Calm - N/A   Clear
10:59 PM 53.6 °F 35.6 °F 51% 30.74 in 10.0 mi Calm Calm - N/A   Clear
11:19 PM 53.6 °F 33.8 °F 47% 30.74 in 10.0 mi Calm Calm - N/A   Clear
11:39 PM 53.6 °F 32.0 °F 44% 30.73 in 10.0 mi Calm Calm - N/A   Clear
11:58 PM 53.6 °F 32.0 °F 44% 30.73 in 10.0 mi Calm Calm - N/A   Clear